Terminal Aerodrome Forecast
Issued by NWS

Home | Current Version | Previous Version | Text Only | Print | Product List | Glossary On
Versions: 1 2 3 4 5 6 7 8 9 10 11 12 13 14 15 16 17 18 19 20 21 22 23 24 25
000
FTUS43 KGRB 191920 AAA
TAFMTW
TAF AMD
KMTW 191920Z 1919/2018 27007KT P6SM VCSH BKN025
      TEMPO 1919/1921 6SM -SHRA SCT025 BKN035
     FM192100 24008KT P6SM VCSH SCT025 BKN035
     FM200400 30003KT 3SM BR SCT008 BKN025
     FM200700 00000KT 3/4SM BR BKN008
     FM201500 32005KT 3SM BR BKN008=

USA.gov is the U.S. government's official web portal to all federal, state and local government web resources and services.